Simultaneous Nadir Overpasses (SNOs) Predictions

Prediction of SNOs between AQUA and METOP-A Satellite Orbit:

Table of predicted SNOs for the next 14.0 days since TLE Epoch: 8/1/2014
Index Date (AQUA) Time (AQUA) Lat,Lon (AQUA) SZA (AQUA ) Date (METOP-A) Time (METOP-A) Lat,Lon (METOP-A) SZA (METOP-A ) Distance(km) Time Diff (sec)
1 08/03/2014 13:15:05 -73.45, 156.30 123.96 08/03/2014 13:13:55 -73.36, 154.72 123.96 51.14 70
2 08/03/2014 14:04:40 73.83, -36.88 56.47 08/03/2014 14:04:25 73.83, -36.85 56.47 0.97 15
3 08/03/2014 14:54:07 -73.91, 130.58 123.44 08/03/2014 14:55:06 -73.89, 130.61 123.47 2.38 59
4 08/06/2014 08:49:25 -73.71,-137.82 122.92 08/06/2014 08:48:12 -73.69,-138.13 122.92 10.19 73
5 08/06/2014 09:38:55 73.84, 29.54 57.23 08/06/2014 09:38:48 73.85, 29.60 57.24 2.62 7
6 08/06/2014 10:28:22 -73.91,-162.99 122.69 08/06/2014 10:29:29 -73.91,-162.93 122.70 1.87 67
7 08/09/2014 04:23:42 -73.79, -71.56 122.05 08/09/2014 04:22:34 -73.80, -71.45 122.03 3.56 68
8 08/09/2014 05:13:10 73.82, 96.02 57.99 08/09/2014 05:13:13 73.82, 95.92 58.00 2.96 3
9 08/09/2014 06:02:39 -73.99, -96.73 121.81 08/09/2014 06:03:51 -74.03, -96.24 121.80 15.68 72
10 08/11/2014 23:57:57 -73.79, -5.13 121.22 08/11/2014 23:56:59 -73.76, -5.14 121.24 3.31 58
11 08/12/2014 00:47:25 73.82, 162.44 58.82 08/12/2014 00:47:37 73.83, 162.35 58.83 2.65 12
12 08/12/2014 01:37:01 -74.36, -31.14 120.59 08/12/2014 01:38:09 -74.33, -29.06 120.70 62.38 68
13 08/14/2014 19:32:10 -73.77, 61.35 120.39 08/14/2014 19:31:22 -73.77, 61.29 120.38 2.12 48
14 08/14/2014 20:21:39 73.86,-131.20 59.72 08/14/2014 20:22:00 73.83,-131.23 59.69 3.18 21




NCC Satellite Simultaneous Nadir Overpasses (SNOs) Prediction Service
